Location: Newark
(35.4036°N, 80.4356°W)
Time: 19:28:45
(UTC+00:00)

RS-15 - Visible Passes

Search period start: 15 October 2019 00:00
Search period end: 25 October 2019 00:00
Orbit: 1900 x 2144 km, 64.8° (Epoch: 14 October)

Date Brightness Start Highest point End Pass type
(mag) Time Alt. Az. Time Alt. Az. Time Alt. Az.
15 Oct 8.1 00:12:32 10° SW 00:23:55 77° WNW 00:34:58 10° NNE visible
15 Oct 9.6 02:30:13 10° W 02:38:22 22° NW 02:46:27 10° NNE visible
15 Oct 10.0 04:53:34 10° NNW 04:57:03 12° N 05:00:31 10° NNE visible
15 Oct 9.3 07:06:18 10° NNW 07:15:12 27° NE 07:24:10 10° E visible
15 Oct 7.9 09:17:58 10° NNW 09:29:00 88° WSW 09:40:26 10° SSE visible
15 Oct 8.0 23:36:29 10° SSW 23:47:54 84° ESE 23:58:55 10° NNE visible
16 Oct 9.4 01:52:25 10° W 02:01:34 28° NW 02:10:37 10° NNE visible
16 Oct 10.0 04:16:01 10° NNW 04:19:34 12° N 04:23:08 10° NNE visible
16 Oct 9.5 06:30:28 10° NNW 06:38:22 22° NNE 06:46:19 10° E visible
16 Oct 8.0 08:41:57 10° NNW 08:52:58 73° ENE 09:04:18 10° SE visible
16 Oct 8.7 10:55:47 10° NW 11:04:15 26° WSW 11:13:00 10° SSW visible
16 Oct 8.0 23:00:45 10° SSW 23:11:58 66° ESE 23:22:47 10° NE visible
17 Oct 9.1 01:14:59 10° WSW 01:24:57 35° NW 01:34:46 10° NNE visible
17 Oct 10.0 03:37:45 10° NW 03:42:08 13° NNW 03:46:32 10° NNE visible
17 Oct 9.7 05:54:35 10° NNW 06:01:21 18° NNE 06:08:08 10° ENE visible
17 Oct 8.3 08:06:00 10° NNW 08:16:48 57° NE 08:27:52 10° SE visible
17 Oct 8.3 10:18:58 10° NW 10:28:36 37° WSW 10:38:35 10° SSW visible
18 Oct 8.8 00:37:53 10° WSW 00:48:30 45° NW 00:58:54 10° NNE visible
18 Oct 9.9 02:59:14 10° NW 03:04:48 15° NNW 03:10:22 10° NNE visible
18 Oct 9.8 05:18:37 10° NNW 05:24:09 15° NNE 05:29:42 10° NE visible
18 Oct 8.6 07:30:06 10° NNW 07:40:29 45° NE 07:51:06 10° ESE visible
18 Oct 8.0 09:42:29 10° NW 09:52:52 50° WSW 10:03:38 10° S visible
19 Oct 8.5 00:01:08 10° SW 00:12:12 58° NW 00:23:00 10° NNE visible
19 Oct 9.8 02:20:48 10° WNW 02:27:37 18° NNW 02:34:25 10° NNE visible
19 Oct 9.9 04:42:28 10° NNW 04:46:49 13° NNE 04:51:11 10° NE visible
19 Oct 9.0 06:54:14 10° NNW 07:04:03 35° NE 07:14:00 10° ESE visible
19 Oct 7.8 09:06:13 10° NW 09:17:02 66° WSW 09:28:16 10° SSE visible
19 Oct 8.2 23:24:42 10° SW 23:36:03 74° WNW 23:47:04 10° NNE visible
20 Oct 9.6 01:42:38 10° W 01:50:37 22° NNW 01:58:32 10° NNE visible
20 Oct 9.9 04:05:51 10° NNW 04:09:23 12° N 04:12:55 10° NNE visible
20 Oct 9.2 06:18:23 10° NNW 06:27:25 28° NE 06:36:32 10° E visible
20 Oct 7.8 08:30:04 10° NNW 08:41:07 85° WSW 08:52:32 10° SSE visible
20 Oct 9.0 10:45:38 10° WNW 10:51:51 17° W 10:58:13 10° SW visible
20 Oct 8.1 22:48:36 10° SSW 23:00:00 87° ESE 23:11:03 10° NNE visible
21 Oct 9.5 01:04:47 10° W 01:13:47 27° NW 01:22:42 10° NNE visible
21 Oct 9.9 03:28:25 10° NNW 03:31:54 12° N 03:35:23 10° NNE visible
21 Oct 9.6 05:42:34 10° NNW 05:56:16 15° ENE 05:58:44 10° E visible
21 Oct 7.9 07:54:02 10° NNW 08:05:05 76° ENE 08:16:28 10° SE visible
21 Oct 8.6 10:12:18 20° WNW 10:16:19 25° WSW 10:24:49 10° SSW visible
22 Oct 9.2 00:27:18 10° WSW 00:37:09 34° NW 00:46:51 10° NNE visible
22 Oct 9.9 02:50:13 10° NW 02:54:28 13° N 02:58:42 10° NNE visible
22 Oct 9.7 05:06:41 10° NNW 05:24:04 - E 05:10:39 16° N visible
22 Oct 8.5 07:18:06 10° NNW 07:32:01 48° ESE 07:40:05 10° SE visible
22 Oct 8.3 09:39:58 35° W 09:40:40 35° WSW 09:50:31 10° SSW visible
22 Oct 8.9 23:50:09 10° WSW 00:00:40 44° NW 00:11:00 10° NNE visible
23 Oct 9.9 02:11:43 10° NW 02:17:07 14° NNW 02:22:29 10° NNE visible
23 Oct 9.8 04:30:44 10° NNW 04:34:59 15° NNE 04:34:59 15° NNE visible
23 Oct 9.3 06:42:12 10° NNW 06:59:15 25° ESE 07:03:21 10° ESE visible
23 Oct 8.2 09:07:09 43° SW 09:07:09 43° SW 09:15:38 10° S visible
23 Oct 8.6 23:13:21 10° SW 23:24:21 56° NW 23:35:07 10° NNE visible
24 Oct 9.8 01:33:16 10° WNW 01:39:54 17° NNW 01:46:31 10° NNE visible
24 Oct 9.8 03:54:37 10° NNW 03:59:08 13° NNE 03:59:31 13° NNE visible
24 Oct 9.8 06:06:20 10° NNW 06:26:10 10° ESE 06:26:18 10° ESE visible
24 Oct 8.6 08:34:03 38° S 08:34:03 38° S 08:40:20 10° S visible
